FENGYUN 1C DEB

Satellite information

Favourite Embed

Satellite Type and Status

DEBRISIN ORBIT

Key statistics

Satellite FENGYUN 1C DEB at a glance.

Uptime

9494

Days in orbit

Revolutions

≈ 14.2

Per day

Orbit

SSO

Sun Synchronous Orbit

Inclination

99.1

Latest

Satellite identification and parameters

Extended collection of information and parameters for FENGYUN 1C DEB.

Object identification

Identified? True

Debris? True

Object name: FENGYUN 1C DEB

International designator: 1999-025JC

Object number (NORAD): 29930

Object ID (CCSDS): 29930

Country: PEOPLES REPUBLIC OF CHINA (PRC)

Current information (Y/N): Y

RCS size: SMALL

Orbital parameters

Period: 101.369 minutes

Inclination: 99.075 deg

SMA: 7201.641 km

Apoapsis: 941.496 km

Periapsis: 705.517 km

RAAN: 2.3038 deg

Eccentricy: 0.0163837

Argument of periapsis: 325.1763 deg

Mean anomaly: 63.0723 deg

Mean motion: 14.2054672 rev/day

Mean motion (dot): 0.00000652 rev/day2

B* drag term: 0.00028483 1/REarth

Two-line elements (TLE)

Creation date: May 6, 2025, 3:54 a.m.

Reference frame: TEME

Reference center: EARTH

Epoch: May 5, 2025, 2:48 p.m. UTC

TLE line 0: 0 FENGYUN 1C DEB

TLE line 1: 1 29930U 99025JC 25125.61721905 .00000652 00000-0 28483-3 0 9995

TLE line 2: 2 29930 99.0750 2.3038 0163837 325.1763 63.0723 14.20546720947514

Live tracking on map

Real-time ground track for satellite FENGYUN 1C DEB.

In-orbit conjunctions

A list of the most updated potential collisions computed for object FENGYUN 1C DEB.

Target Orbit TCA Probability of collision Miss distance Type
METEOR 2-20 DEB LEO 2025-01-07 02:06:09 0.000124941 721.0 (m) DEBRIS
CZ-6A DEB LEO 2024-10-11 04:35:48 0.0001570467 869.0 (m) DEBRIS
CZ-6A DEB SSO 2024-07-11 19:31:37 0.0001204128 135.0 (m) DEBRIS

Associated space launch

Chinese polar orbiting meteorological satellite

FENGYUN 1C DEB was lifted into orbit during the mission ‘Long March 4B | Feng Yun 1C’, on board a Long March 4B space rocket.

The launch took place on May 10, 1999, 1:33 a.m. from Launch Complex 7.

For more information about the launch, click the button.

Launch to space Long March 4B | Feng Yun 1C
Long March 4B | Feng Yun 1C

Agency: N/A

Status: Launch Successful

Launch date: May 10, 1999, 1:33 a.m. UTC

Rocket: Long March 4B

Launch pad: Launch Complex 7

Location: Taiyuan Satellite Launch Center, People's Republic of China

...

Latest news about this satellite

There are no fresh news available about this satellite. Check back as we update our databases every day.


Newsletter sign-up

Weekly statistics, charts and insights to help you stay on top of the space industry.